Lid_Strength_Index
13 14 14 12 11 12 13 13 14 12 10 11 12 11 10 8 7 7 7 7 7 6 5 5 5 5 4 5 6 7 7 7 6 6 6 5 5 4 3 1 0 0 0 0
14 15 11 11 11 12 13 14 14 12 10 10 11 12 10 8 8 7 7 7 8 8 7 7 6 6 5 5 5 6 6 7 7 6 6 5 5 5 3 0 0 0 0 1
15 12 10 12 13 14 13 14 14 14 11 10 11 13 11 9 8 8 9 9 8 9 9 8 8 7 7 7 6 6 5 6 7 7 6 5 5 5 4 1 1 1 1 1
13 11 12 12 13 12 16 11 12 13 14 17 11 20 13 11 11 10 10 9 9 9 9 9 9 8 8 7 6 6 5 4 5 6 7 7 7 6 4 1 1 1 1 1
13 12 12 13 13 12 14 11 12 13 14 15 14 17 14 12 12 11 11 10 10 9 10 10 10 9 8 8 7 6 5 4 4 4 6 7 7 6 3 1 2 2 1 1
12 9 10 11 11 11 10 13 13 16 16 19 16 16 16 13 14 13 11 11 11 11 11 10 10 9 9 8 8 7 6 5 4 3 5 5 6 6 5 2 2 2 2 2
12 11 10 10 12 14 14 14 19 20 19 19 15 17 15 11 12 14 13 12 12 11 12 11 11 11 10 10 9 8 7 7 5 3 4 5 5 6 4 2 2 3 3 3
16 18 13 10 11 13 14 15 18 23 21 19 15 19 15 13 11 11 11 12 11 12 11 11 11 11 10 10 10 9 8 7 6 4 3 4 4 5 2 2 2 2 2 4
15 16 10 10 9 11 15 17 14 17 19 21 17 16 12 11 12 12 13 13 13 13 12 12 11 11 11 11 10 9 9 8 6 5 3 3 3 3 2 1 1 2 3 4
12 16 11 12 10 10 12 12 17 15 22 22 19 18 17 14 15 14 15 14 14 14 14 13 13 12 12 11 10 9 9 9 6 5 5 3 2 2 1 2 2 2 3 4
10 14 14 13 13 14 14 15 14 14 15 20 22 20 12 15 15 16 15 15 15 15 14 14 13 13 12 11 11 10 10 10 8 5 4 3 2 2 2 2 2 3 4 5
10 13 15 14 13 13 13 15 14 17 19 17 18 20 14 14 15 15 15 15 15 15 15 14 14 13 13 13 12 11 11 10 8 7 5 3 2 2 3 3 3 4 5 5
10 14 17 16 14 14 14 14 14 14 15 19 21 19 13 13 13 14 16 16 15 15 16 16 15 15 15 15 14 13 12 12 10 8 8 7 7 8 8 7 6 5 5 5
7 12 15 18 15 13 16 15 15 16 19 18 18 18 15 13 14 15 16 16 16 17 17 16 16 16 16 16 15 14 14 12 12 9 9 10 10 11 11 9 10 8 6 7
9 14 13 14 13 14 16 17 16 18 17 19 18 18 15 14 15 16 16 16 17 18 17 17 17 17 17 17 16 15 15 15 14 11 11 11 11 11 11 11 11 11 11 10
9 14 13 15 14 16 18 17 18 18 18 18 18 18 13 14 15 15 16 17 18 18 18 18 18 18 18 18 17 17 16 17 15 14 13 13 11 12 12 12 13 12 12 12
12 13 15 18 18 18 20 16 18 17 17 15 17 13 14 14 15 15 16 18 18 18 19 19 19 19 18 18 17 18 18 17 17 16 16 14 13 12 13 12 12 13 12 12
13 14 14 18 19 22 15 17 17 16 14 14 14 14 13 15 15 15 16 18 18 19 19 19 19 19 18 18 18 18 18 17 17 17 17 16 14 15 15 14 13 12 12 12
11 14 16 18 19 17 14 15 14 15 14 13 14 14 15 16 16 15 16 17 18 19 19 19 19 19 19 19 17 18 19 18 18 18 18 17 16 15 15 16 15 13 13 13
11 12 14 18 21 22 15 13 14 15 16 12 15 14 15 15 15 15 17 17 18 18 18 19 19 19 20 19 17 18 19 20 20 19 18 17 17 16 16 16 15 13 13 13
16 15 17 18 19 17 13 13 12 17 15 13 14 13 15 14 13 16 19 18 19 19 19 18 19 20 20 19 19 20 21 21 20 18 18 17 16 17 16 16 15 14 14 14
16 16 17 18 20 21 12 12 14 11 12 13 14 13 14 13 16 17 17 18 17 18 18 19 19 20 20 20 20 21 22 21 20 18 18 18 18 16 15 15 15 14 14 14
15 13 14 15 15 11 11 11 10 13 12 10 12 12 13 14 15 15 15 16 16 16 16 17 18 19 20 21 21 22 22 21 20 19 19 19 17 17 15 14 14 13 13 13
11 10 13 14 12 11 10 10 11 12 12 10 10 10 11 13 13 15 15 15 15 16 16 17 17 18 20 20 21 22 22 22 20 20 20 19 19 17 17 14 14 13 13 13
11 11 12 13 11 10 10 10 9 10 11 11 10 11 11 12 13 14 15 15 15 16 16 17 18 18 19 20 21 22 22 21 19 20 20 20 19 19 17 16 14 14 12 12
10 12 13 13 10 11 11 9 9 10 10 10 11 11 11 11 12 14 14 14 15 15 17 17 18 19 20 21 21 23 25 23 20 19 19 20 19 19 19 17 15 14 13 12